Regional Weather Roundup
Issued by NWS Newport/Morehead, NC

Current Version | Previous Version | Graphics & Text | Print | Product List | Glossary Off
Versions: 1 2 3 4 5 6 7 8 9 10 11 12 13 14 15 16 17 18 19 20 21 22 23 24 25 26 27 28 29 30 31 32 33 34 35 36 37 38 39 40 41 42 43 44 45 46 47 48 49 50

000
ASUS42 KMHX 261913
RWRMHX
WEATHER ROUNDUP FOR EASTERN NORTH CAROLINA
NATIONAL WEATHER SERVICE NEWPORT/MOREHEAD CITY NC
300 PM EDT THU MAY 26 2016

NOTE: "FAIR" INDICATES FEW OR NO CLOUDS BELOW 12,000 FEET
WITH NO SIGNIFICANT WEATHER AND/OR OBSTRUCTIONS TO VISIBILITY

NCZ015>017-031-032-045>047-102-103-262000-
NORTH COAST

CITY           SKY/WX    TMP DP  RH WIND       PRES   REMARKS
EDENTON        NOT AVBL
ELIZABETH CITY SUNNY     86  60  41 S14       30.11F
KITTY HAWK     CLEAR     86  67  53 S10       30.13S
MANTEO         NOT AVBL

$$

NCZ045>047-081-094-103-104-262000-
CENTRAL COAST

CITY           SKY/WX    TMP DP  RH WIND       PRES   REMARKS
FRISCO         SUNNY     79  68  69 SW12      30.17F

$$

NCZ095-097-098-100-101-262000-
SOUTHERN COAST

CITY           SKY/WX    TMP DP  RH WIND       PRES   REMARKS
BEAUFORT       SUNNY     79  67  66 SW13      30.17F
CEDAR ISLAND   NOT AVBL
JACKSONVILLE   MOSUNNY   81  64  56 S16       30.15F
PINEY ISLAND   PTCLDY   N/A N/A N/A SW10      30.16
WILMINGTON     MOSUNNY   84  65  52 S14       30.16F


$$

NCZ011>013-027>030-043-044-078>080-089-090>093-098-262000-
COASTAL PLAIN

CITY           SKY/WX    TMP DP  RH WIND       PRES   REMARKS
AHOSKIE        SUNNY     86  60  40 S3        30.11
CLINTON        MOSUNNY   87  64  45 SW5       30.14F
ELIZABETHTOWN  MOSUNNY   86  62  43 S8        30.15S
GOLDSBORO      MOSUNNY   87  60  40 SW12G18   30.12F
GREENVILLE     MOSUNNY   88  61  40 SW6       30.13F
HAVELOCK       MOSUNNY   83  64  52 S14       30.17S
KENANSVILLE    CLOUDY    83  61  47 S3        30.15S
KINSTON        NOT AVBL
NEW BERN       MOSUNNY   85  67  54 SE16      30.15F
RICHLANDS      MOSUNNY   84  64  50 S8        30.14F
ROCKY MOUNT    PTSUNNY   86  60  41 SW8       30.12F
WASHINGTON     SUNNY     87  58  37 S7        30.12F
WHITEVILLE     MOSUNNY   85  62  47 S7        30.15F

$$

AMZ130-135-150-152-154-156-158-170-250-252-270-ANZ085-086-088-633-658-670-262000-
MARINE OBSERVATIONS

STATION/POSITION TIME  TEMP    WIND        PRES    WAVE   SWELL
                       AIR SEA DIR/SP/G            HT/PER HT/PER
                 (UTC) (F)     (DEG/KT/KT) (MB)    (FT/S) (FT/S)
CHESAPEAKE LIGHT 1900   71     170/ 20/ 21 1019.6
64 E VA BEACH    1850   64 58  190/ 10/ 10 1020.5    2/ 8   2/ 8
DUCK             1800   81 63  180/  9/ 11 1019.9
2 E DUCK         1811      68                N/A     1/ 8
OREGON INLET     1800   75 73  190/ 14/ 17 1021.3
13E OREGON INLT  1800      66                N/A     2/ 8   2/ 8
HATTERAS CG      1800   76 72  200/ 10/ 12 1021.5
DIAMOND BUOY     1850   74 72  240/  6/  6 1021.9    2/ 8   2/ 8
CAPE LOOKOUT     1900   77     200/ 10/ 13 1021.6
BEAUFORT LAB     1800   77 71  210/ 10/ 13 1021.3
30 SE NEW RVR IN 1825      75                N/A     2/ 8
27 SE WRIGHTSVLE 1808   77 75  230/  6/  8 1022.6
5 SE WRIGHTSVLE  1808   75 74  200/ 12/ 14 1022.7
225 S CAPE HAT   1850   76 78   60/ 14/ 16 1021.6    3/ 7   2/ 7
41 SE CHARLESTON 1850   78 80  240/  2/  2 1022.0    2/ 9   2/ 9

$$




USA.gov is the U.S. government's official web portal to all federal, state and local government web resources and services.